GALAXY 36 (G-36)

Last updated on Tue Sep 22 2026 00:03:16 GMT+0000 (Coordinated Universal Time)

1 54742U 22170B 26264.47147727 -.00000189 00000+0 00000+0 0 9990 2 54742 0.0254 216.5827 0002031 271.0006 313.5169 1.00271327 13744
UTC large
Height (km)
Speed (km/s)
/
Latitude / Longitude
Inclination (degrees)
Orbital Period (minutes)
Azimuth
Elevation
Range (km)
Doppler Factor

Next 0 passes for location: London (51.5072 / 0.1276)

No passes found over London.
GALAXY 36 (G-36)